This is the latest recevied weather packets stored in our database for station/object K0SNA. If no packets are shown the sender has not sent any weather packets the latest 10 day(s).
| Time | Temp. | Humidity | Pressure | Rain* | Wind** | Luminosity | Snow |
|---|---|---|---|---|---|---|---|
| 1777817257 | 15.56° C | 48% | 1006.6 hPa | 0 mm | - | 329 W/m² | - |
| 1777816954 | 15° C | 49% | 1006.6 hPa | 0 mm | - | 314 W/m² | - |
| 1777816650 | 15° C | 50% | 1006.5 hPa | 0 mm | - | 136 W/m² | - |
| 1777816347 | 14.44° C | 50% | 1006.4 hPa | 0 mm | - | 288 W/m² | - |
| 1777816045 | 14.44° C | 50% | 1006.5 hPa | 0 mm | - | 276 W/m² | - |
| 1777815742 | 14.44° C | 51% | 1006.5 hPa | 0 mm | - | 265 W/m² | - |
| 1777815440 | 14.44° C | 51% | 1006.3 hPa | 0 mm | - | 249 W/m² | - |
| 1777815137 | 14.44° C | 50% | 1006.4 hPa | 0 mm | - | 235 W/m² | - |
| 1777814833 | 13.89° C | 50% | 1006.4 hPa | 0 mm | - | 222 W/m² | - |
| 1777814529 | 13.89° C | 50% | 1006.3 hPa | 0 mm | - | 210 W/m² | - |
| 1777814227 | 13.89° C | 50% | 1005.9 hPa | 0 mm | - | 196 W/m² | - |
| 1777813924 | 13.89° C | 50% | 1006.2 hPa | 0 mm | - | 166 W/m² | - |
| 1777813621 | 13.33° C | 50% | 1006.1 hPa | 0 mm | - | 148 W/m² | - |
| 1777813319 | 13.33° C | 51% | 1006.1 hPa | 0 mm | - | 41 W/m² | - |
| 1777813016 | 13.33° C | 50% | 1005.9 hPa | 0 mm | - | 146 W/m² | - |
| 1777812714 | 12.78° C | 51% | 1005.9 hPa | 0 mm | - | 45 W/m² | - |
| 1777812409 | 12.78° C | 51% | 1005.8 hPa | 0 mm | - | 119 W/m² | - |
| 1777812108 | 12.78° C | 51% | 1005.9 hPa | 0 mm | - | 108 W/m² | - |
| 1777811806 | 12.22° C | 52% | 1005.7 hPa | 0 mm | - | 99 W/m² | - |
| 1777811503 | 12.22° C | 52% | 1005.6 hPa | 0 mm | - | 89 W/m² | - |
| 1777811199 | 12.22° C | 52% | 1005.8 hPa | 0 mm | - | 80 W/m² | - |
| 1777810897 | 11.67° C | 52% | 1005.6 hPa | 0 mm | - | 73 W/m² | - |
| 1777810592 | 11.67° C | 53% | 1005.4 hPa | 0 mm | - | 65 W/m² | - |
| 1777810290 | 11.67° C | 52% | 1005.3 hPa | 0 mm | - | 53 W/m² | - |
| 1777809985 | 11.67° C | 53% | 1005.4 hPa | 0 mm | - | 49 W/m² | - |
* Rain latest hour (hover to see other rain measurements)
** Current wind speed in m/s (hover to see current wind gust speed)